Weather History for Jamestown, NY

Change the Weather History Date:

Tuesday, November 12, 2013

  Actual Average Record
Temperature  
Mean Temperature 26 °F -  
Max Temperature 28 °F 44 °F 66 °F (2012)
Min Temperature 23 °F 31 °F 17 °F (1961)
Degree Days  
Heating Degree Days 40    
Moisture  
Dew Point 19 °F    
Average Humidity 76    
Maximum Humidity 93    
Minimum Humidity 64    
Precipitation  
Precipitation 0.00 in - - ()
Sea Level Pressure  
Sea Level Pressure 30.25 in    
Wind  
Wind Speed 9 mph (NNW)    
Max Wind Speed 15 mph    
Max Gust Speed 22 mph    
Visibility 8 miles    
Events      
Averages and records for this station are not official NWS values.
T = Trace of Precipitation, MM = Missing Value Source: NWS Daily Summary

Daily Weather History Graph

Daily Weather History Graph

Search for Another Location

Airport:

Trip Planner

Search our weather history database for the weather conditions in past years. The results will help you decide how hot, cold, wet, or windy it might be!

Date:

Astronomy

Nov. 12, 2013 Rise Set
Actual Time 7:03 AM EST 4:58 PM EST
Civil Twilight 6:33 AM EST 5:27 PM EST
Nautical Twilight 6:00 AM EST 6:01 PM EST
Astronomical Twilight 5:27 AM EST 6:34 PM EST
Moon 2:16 PM EST (11/12) 1:46 AM EST (11/12)
Length of Visible Light 10h 53m
Length of Day
9h 54m
Waxing Gibbous, 76% of the Moon is Illuminated
Nov 12
Waxing Gibbous
Nov 17
Full
Nov 25
Last Quarter
Dec 2
New
Dec 9
First Quarter

Hourly Weather History & Observations

Time (EST) Temp. Windchill Dew Point Humidity Pressure Visibility Wind Dir Wind Speed Gust Speed Precip Events Conditions
12:15 AM 26.6 °F 19.1 °F 24.8 °F 93% 30.09 in 2.0 mi NNW 6.9 mph - N/A   Overcast
12:35 AM 26.6 °F 17.5 °F 23.0 °F 86% 30.09 in 5.0 mi NNW 9.2 mph - N/A   Overcast
12:55 AM 26.6 °F 19.1 °F 23.0 °F 86% 30.09 in 5.0 mi North 6.9 mph - N/A   Overcast
1:15 AM 26.6 °F 20.0 °F 23.0 °F 86% 30.10 in 10.0 mi North 5.8 mph - N/A   Overcast
1:35 AM 26.6 °F 20.0 °F 21.2 °F 80% 30.10 in 10.0 mi NW 5.8 mph - N/A   Overcast
1:55 AM 26.6 °F 21.2 °F 21.2 °F 80% 30.11 in 10.0 mi NNW 4.6 mph - N/A   Mostly Cloudy
2:15 AM 26.6 °F 20.0 °F 19.4 °F 74% 30.11 in 10.0 mi North 5.8 mph - N/A   Partly Cloudy
2:35 AM 24.8 °F 17.9 °F 19.4 °F 80% 30.12 in 10.0 mi NNW 5.8 mph - N/A   Partly Cloudy
2:55 AM 24.8 °F 16.9 °F 19.4 °F 80% 30.12 in 10.0 mi North 6.9 mph - N/A   Mostly Cloudy
3:15 AM 24.8 °F 17.9 °F 19.4 °F 80% 30.13 in 10.0 mi NNW 5.8 mph - N/A   Mostly Cloudy
3:35 AM 24.8 °F 17.9 °F 19.4 °F 80% 30.13 in 10.0 mi NNW 5.8 mph - N/A   Overcast
3:55 AM 24.8 °F 16.9 °F 19.4 °F 80% 30.14 in 10.0 mi NNW 6.9 mph - N/A   Overcast
4:15 AM 24.8 °F 16.9 °F 17.6 °F 74% 30.15 in 10.0 mi NNW 6.9 mph - N/A   Overcast
4:35 AM 24.8 °F 17.9 °F 17.6 °F 74% 30.16 in 10.0 mi North 5.8 mph - N/A   Overcast
4:55 AM 24.8 °F 15.3 °F 17.6 °F 74% 30.16 in 10.0 mi North 9.2 mph - N/A   Overcast
5:15 AM 24.8 °F 15.3 °F 17.6 °F 74% 30.17 in 10.0 mi NNW 9.2 mph - N/A   Overcast
5:35 AM 24.8 °F 15.3 °F 17.6 °F 74% 30.18 in 10.0 mi North 9.2 mph - N/A   Mostly Cloudy
5:55 AM 24.8 °F 16.9 °F 17.6 °F 74% 30.18 in 10.0 mi NNW 6.9 mph - N/A   Overcast
6:15 AM 24.8 °F 16.1 °F 17.6 °F 74% 30.19 in 10.0 mi NNW 8.1 mph - N/A   Overcast
6:35 AM 24.8 °F 16.9 °F 17.6 °F 74% 30.20 in 10.0 mi North 6.9 mph - N/A   Mostly Cloudy
6:55 AM 23.0 °F 17.0 °F 17.6 °F 80% 30.21 in 10.0 mi North 4.6 mph - N/A   Mostly Cloudy
7:15 AM 23.0 °F 14.7 °F 17.6 °F 80% 30.23 in 10.0 mi North 6.9 mph - N/A   Mostly Cloudy
7:35 AM 23.0 °F 14.7 °F 17.6 °F 80% 30.24 in 10.0 mi NNW 6.9 mph - N/A   Mostly Cloudy
7:55 AM 24.8 °F 16.1 °F 17.6 °F 74% 30.25 in 10.0 mi NNW 8.1 mph - N/A   Overcast
8:15 AM 24.8 °F 17.9 °F 19.4 °F 80% 30.26 in 4.0 mi North 5.8 mph - N/A   Overcast
8:35 AM 24.8 °F 13.4 °F 17.6 °F 74% 30.26 in 3.0 mi NNW 12.7 mph 16.1 mph N/A   Overcast
8:55 AM 24.8 °F 14.0 °F 19.4 °F 80% 30.27 in 4.0 mi North 11.5 mph 17.3 mph N/A   Overcast
9:15 AM 24.8 °F 14.0 °F 19.4 °F 80% 30.28 in 3.0 mi North 11.5 mph 16.1 mph N/A   Overcast
9:35 AM 24.8 °F 15.3 °F 19.4 °F 80% 30.28 in 10.0 mi NNW 9.2 mph - N/A   Overcast
9:55 AM 24.8 °F 14.6 °F 19.4 °F 80% 30.29 in 10.0 mi North 10.4 mph - N/A   Overcast
10:15 AM 24.8 °F 12.4 °F 19.4 °F 80% 30.29 in 10.0 mi NNW 15.0 mph - N/A   Mostly Cloudy
10:35 AM 26.6 °F 16.2 °F 19.4 °F 74% 30.29 in 10.0 mi North 11.5 mph 19.6 mph N/A   Mostly Cloudy
10:55 AM 26.6 °F 15.7 °F 19.4 °F 74% 30.30 in 10.0 mi NNW 12.7 mph - N/A   Mostly Cloudy
11:15 AM 26.6 °F 16.2 °F 19.4 °F 74% 30.30 in 10.0 mi North 11.5 mph - N/A   Overcast
11:35 AM 26.6 °F 16.8 °F 17.6 °F 69% 30.30 in 10.0 mi NNW 10.4 mph 19.6 mph N/A   Mostly Cloudy
11:55 AM 26.6 °F 14.7 °F 19.4 °F 74% 30.30 in 10.0 mi NNW 15.0 mph 21.9 mph N/A   Mostly Cloudy
12:15 PM 26.6 °F 16.2 °F 15.8 °F 64% 30.29 in 10.0 mi NNW 11.5 mph 17.3 mph N/A   Mostly Cloudy
12:35 PM 28.4 °F 18.0 °F 17.6 °F 64% 30.29 in 10.0 mi NNW 12.7 mph 17.3 mph N/A   Mostly Cloudy
12:55 PM 26.6 °F 16.8 °F 17.6 °F 69% 30.29 in 10.0 mi NW 10.4 mph 16.1 mph N/A   Mostly Cloudy
1:15 PM 28.4 °F 19.7 °F 19.4 °F 69% 30.29 in 10.0 mi NNW 9.2 mph 17.3 mph N/A   Overcast
1:35 PM 28.4 °F 18.0 °F 17.6 °F 64% 30.28 in 10.0 mi North 12.7 mph - N/A   Mostly Cloudy
1:55 PM 28.4 °F 19.1 °F 19.4 °F 69% 30.29 in 10.0 mi NNW 10.4 mph - N/A   Mostly Cloudy
2:15 PM 28.4 °F 17.5 °F 19.4 °F 69% 30.28 in 10.0 mi NNW 13.8 mph 21.9 mph N/A   Mostly Cloudy
2:35 PM 28.4 °F 18.0 °F 19.4 °F 69% 30.29 in 10.0 mi NNW 12.7 mph 20.7 mph N/A   Overcast
2:55 PM 28.4 °F 18.0 °F 17.6 °F 64% 30.29 in 10.0 mi NW 12.7 mph 20.7 mph N/A   Overcast
3:15 PM 28.4 °F 19.1 °F 17.6 °F 64% 30.29 in 9.0 mi NW 10.4 mph 17.3 mph N/A   Overcast
3:35 PM 26.6 °F 16.2 °F 19.4 °F 74% 30.30 in 1.8 mi NW 11.5 mph 17.3 mph N/A   Overcast
3:55 PM 26.6 °F 18.2 °F 19.4 °F 74% 30.30 in 2.0 mi NW 8.1 mph - N/A   Overcast
4:15 PM 26.6 °F 17.5 °F 19.4 °F 74% 30.30 in 3.0 mi NW 9.2 mph - N/A   Overcast
4:35 PM 26.6 °F 14.7 °F 21.2 °F 80% 30.30 in 1.0 mi NW 15.0 mph 21.9 mph N/A   Overcast
4:55 PM 26.6 °F 18.2 °F 21.2 °F 80% 30.30 in 0.8 mi NW 8.1 mph - N/A   Overcast
5:15 PM 26.6 °F 17.5 °F 21.2 °F 80% 30.30 in 1.8 mi WNW 9.2 mph - N/A   Overcast
5:35 PM 26.6 °F 17.5 °F 21.2 °F 80% 30.30 in 2.5 mi NW 9.2 mph - N/A   Mostly Cloudy
5:55 PM 26.6 °F 16.2 °F 21.2 °F 80% 30.31 in 1.0 mi NW 11.5 mph - N/A   Overcast
6:15 PM 24.8 °F 15.3 °F 21.2 °F 86% 30.30 in 5.0 mi NNW 9.2 mph - N/A   Overcast
6:35 PM 24.8 °F 14.0 °F 19.4 °F 80% 30.31 in 3.0 mi WNW 11.5 mph - N/A   Overcast
6:55 PM 26.6 °F 17.5 °F 19.4 °F 74% 30.31 in 10.0 mi NNW 9.2 mph - N/A   Overcast
7:15 PM 24.8 °F 15.3 °F 17.6 °F 74% 30.32 in 5.0 mi WNW 9.2 mph - N/A   Overcast
7:35 PM 24.8 °F 12.9 °F 17.6 °F 74% 30.32 in 5.0 mi NW 13.8 mph 17.3 mph N/A   Mostly Cloudy
7:55 PM 24.8 °F 16.9 °F 17.6 °F 74% 30.33 in 5.0 mi NW 6.9 mph - N/A   Overcast
8:15 PM 24.8 °F 15.3 °F 19.4 °F 80% 30.33 in 1.8 mi WNW 9.2 mph - N/A   Overcast
8:35 PM 24.8 °F 15.3 °F 21.2 °F 86% 30.34 in 1.0 mi NW 9.2 mph - N/A   Overcast
8:55 PM 24.8 °F 14.6 °F 19.4 °F 80% 30.34 in 1.0 mi NW 10.4 mph - N/A   Overcast
9:15 PM 24.8 °F 14.6 °F 19.4 °F 80% 30.34 in 10.0 mi NNW 10.4 mph 17.3 mph N/A   Overcast
9:35 PM 24.8 °F 13.4 °F 17.6 °F 74% 30.34 in 10.0 mi NW 12.7 mph 19.6 mph N/A   Mostly Cloudy
9:55 PM 24.8 °F 12.4 °F 17.6 °F 74% 30.34 in 8.0 mi NW 15.0 mph 18.4 mph N/A   Mostly Cloudy
10:15 PM 24.8 °F 15.3 °F 17.6 °F 74% 30.34 in 10.0 mi NW 9.2 mph - N/A   Overcast
10:35 PM 24.8 °F 13.4 °F 17.6 °F 74% 30.34 in 6.0 mi NW 12.7 mph 19.6 mph N/A   Mostly Cloudy
10:55 PM 24.8 °F 15.3 °F 17.6 °F 74% 30.34 in 10.0 mi NW 9.2 mph - N/A   Overcast
11:15 PM 24.8 °F 14.0 °F 17.6 °F 74% 30.34 in 10.0 mi NNW 11.5 mph - N/A   Overcast
11:35 PM 24.8 °F 15.3 °F 17.6 °F 74% 30.34 in 10.0 mi NNW 9.2 mph - N/A   Overcast
11:55 PM 24.8 °F 14.0 °F 17.6 °F 74% 30.34 in 9.0 mi NNW 11.5 mph - N/A   Overcast